User: anonymous   Login
Location: *
(48.8489°N, 2.3218°E)
Time: 02:27:41
(UTC+00:00)
Language:

Cosmos 2082 Rocket - Orbit

View from above orbital plane
View from above orbital plane
View from above satellite
View from above satellite

Ground track
Ground track

The orbit data is extracted from the following two-line orbital elements,

1 20625U 90046B   19292.88960598 -.00000022 +00000-0 +13148-4 0  9996
2 20625 070.9972 155.2335 0016384 251.4648 108.4695 14.14642542518456
Epoch (UTC): 19 October 2019 21:21:01
Eccentricity: 0.0016384
inclination: 70.9972°
perigee height: 831 km
apogee height: 855 km
right ascension of ascending node: 155.2335°
argument of perigee: 251.4648°
revolutions per day: 14.14642542
mean anomaly at epoch: 108.4695°
orbit number at epoch: 51845

The dashed part of the orbit path shows where the satellite is in the earth's shadow,  

DLR